Location: Harbor View
(36.2448°N, 86.5797°W)
Time: 09:26:58
(UTC+00:00)

Cosmos 1300 - Pass Details

Date: 29 October 2020
Orbit: 511 x 514 km, 82.5° (Epoch: 04 December)

Event Time Altitude Azimuth Distance (km) Brightness Sun altitude
Rises 23:21:38 0° 194° (SSW) 2,612 6.7 -6.5°
Reaches altitude 10° 23:23:47 10° 198° (SSW) 1,731 5.8 -6.9°
Maximum altitude 23:27:31 59° 278° (W) 596 3.4 -7.6°
Drops below altitude 10° 23:31:18 10° 359° (N) 1,745 5.3 -8.4°
Sets 23:33:28 0° 3° (N) 2,636 6.2 -8.8°
